Showing default

NINGXIA-1 5, 44783

Orbit data source: Space-Track

NINGXIA-1 5, 44783 is a Chinese payload satellite in LEO that was launched on Wed, 13 Nov 2019 UTC via a CHANG ZHENG 6 launch vehicle from the Taiyaun Space Center, China (TSC). Payload-class satellites include a variety of spacecraft equipped with specific instruments for various scientific and technological missions. These include communications satellites like Starlink; space stations such as the ISS; scientific satellites like the Hubble; Earth observation satellites from companies like Planet Labs, Umbra, and HawkEye 360; GPS; miniature CubeSats for education and research; and military/defense satellites.

Loading next visibility...
Identifier
44783, 2019-076E
Orbit
LEO
Last TLE update
4 hours ago
Origin
Manufacturer
DFH
Mission
Operational Commercial Sigint
Bus & Motor
NX-1, Unknown motor
Mass
~100 kg wet, ~100 kg dry
Launch date (UTC)
2019-11-13 (5 years ago)
Launch vehicle
CHANG ZHENG 6
Launch site
Taiyaun Space Center, China (TSC)
Object type
Payload
Rocket body
Debris
Shape & HBR
Box + 2 Pan, Unknown HBR
Radar Cross Section
0.166 m², Medium (>0.1 m² and < 1m²)

Expand to show TLE details & history

TLE from 4 hours ago
0 NINGXIA-1 5
1 44783U 19076E   25129.22002402 -.00000053  00000-0  50021-4 0  9991
2 44783  45.0050 184.3122 0010000  28.6399 331.4983 14.01943014281178
Epoch: 2025-05-09T05:16Z
Definitive object data (Epoch: 2025-05-09T05:16:50.075Z)
Latitude
0.00001°
Longitude
-122.17573°
Altitude
880.692 km
Speed
7.417 km/s
True Right ascension
12h 17m 14s
True Declination
0° 00' 00"
Sunlit
Object was in full shadow at TLE epoch
Visualization TLE readout
Latitude
-4.07893°
Longitude
61.09021°
Altitude
894.339 km
Speed
7.403 km/s
Apparent Right ascension
02h 31m 18s
Apparent Declination
-25° 41' 47"
Sunlit
Object is in daylight
Visualization observer readout
Local Sidereal Time
17:44:17
Azimuth
85.535° E
Elevation
-47.603°
Doppler factor
1
Orbital elements
Apogee altitude
895.861 km
Perigee altitude
881.327 km
Semi-major axis
7,266.731 km
Eccentricity
0.001
Inclination
45.005°
RAAN
184.3122°
Arg. of periapsis
28.6399°
True anomaly
331.44356°
Mean anomaly
331.4983°
Eccentric anomaly
331.47094°
Mean motion
3.50376 °/min
BSTAR
0.000050021
Orbital period
102.75 mins
Loading maneuver chart data...
Loading SW <> Apogee altitude chart data...
Loading historical data...
Loading historical data...
Loading historical data...
Loading historical data...
Loading historical data...
Loading historical data...
Loading historical data...
Other satellites on launch #76 in the year 2019 (2019-11-13 UTC)

NINGXIA-1 5 Visibility forecast

Observer location: undefined°, undefined°

Span
Click to sort rows by Start time (UTC) header in descending order
Start Az.
Max El. time (UTC)
Max El. Az.
Max El.
End time (UTC)
End Az.
10 mins2025-05-09 10:47:56.424Z292.697° NW2025-05-09 10:52:56.424Z7.159° NNE39.964°2025-05-09 10:57:56.424Z85.461° E
10 mins2025-05-09 12:36:56.424Z289.752° WNW2025-05-09 12:40:56.424Z236.49° WSW43.439°2025-05-09 12:46:56.424Z125.351° SE
7 mins2025-05-09 14:25:56.424Z257.93° W2025-05-09 14:28:56.424Z220.861° SW19.586°2025-05-09 14:32:56.424Z178.433° S
7 mins2025-05-10 05:22:56.424Z177.514° S2025-05-10 05:25:56.424Z141.266° SSE21.292°2025-05-10 05:29:56.424Z92.657° ESE
10 mins2025-05-10 07:08:56.424Z237.292° WSW2025-05-10 07:13:56.424Z124.811° SE44.279°2025-05-10 07:18:56.424Z68.142° E
9 mins2025-05-10 08:57:56.424Z279.978° WNW2025-05-10 09:01:56.424Z347.841° N39.481°2025-05-10 09:06:56.424Z67.627° E
|